QPF
0.04 0.06 0.07 0.06 0.08 0.09 0.09 0.08 0.07 0.05 0.04 0.04 0.05 0.05 0.06 0.06 0.08 0.10 0.11 0.10 0.10 0.10 0.10 0.10 0.08 0.06 0.05 0.05 0.06 0.07 0.07 0.06 0.07 0.09 0.11 0.13 0.14 0.13
0.05 0.05 0.05 0.04 0.06 0.09 0.08 0.08 0.08 0.06 0.04 0.04 0.05 0.06 0.07 0.09 0.13 0.12 0.10 0.09 0.08 0.06 0.05 0.05 0.05 0.04 0.05 0.06 0.05 0.05 0.05 0.06 0.06 0.06 0.06 0.07 0.08 0.08
0.05 0.04 0.04 0.04 0.05 0.06 0.07 0.07 0.08 0.08 0.06 0.05 0.06 0.07 0.07 0.07 0.08 0.10 0.10 0.07 0.07 0.07 0.05 0.05 0.05 0.06 0.05 0.05 0.05 0.05 0.06 0.05 0.05 0.05 0.06 0.06 0.05 0.05
0.07 0.05 0.06 0.07 0.06 0.07 0.08 0.08 0.08 0.08 0.06 0.04 0.05 0.05 0.04 0.06 0.07 0.07 0.06 0.04 0.03 0.04 0.05 0.05 0.05 0.05 0.05 0.05 0.06 0.06 0.05 0.05 0.06 0.06 0.06 0.06 0.06 0.06
0.06 0.05 0.07 0.09 0.08 0.08 0.07 0.07 0.06 0.06 0.04 0.03 0.02 0.03 0.04 0.05 0.05 0.04 0.04 0.04 0.04 0.04 0.04 0.04 0.05 0.04 0.04 0.04 0.04 0.03 0.03 0.03 0.04 0.05 0.06 0.06 0.06 0.07
0.07 0.07 0.08 0.07 0.07 0.07 0.05 0.05 0.04 0.03 0.03 0.03 0.02 0.04 0.05 0.06 0.05 0.04 0.03 0.03 0.04 0.05 0.04 0.04 0.03 0.04 0.05 0.05 0.04 0.05 0.05 0.05 0.06 0.06 0.06 0.05 0.05 0.06
0.06 0.06 0.06 0.06 0.06 0.07 0.05 0.05 0.04 0.03 0.03 0.03 0.03 0.02 0.03 0.04 0.03 0.04 0.03 0.03 0.04 0.03 0.03 0.02 0.02 0.02 0.03 0.04 0.05 0.05 0.04 0.04 0.05 0.05 0.04 0.04 0.04 0.04
0.04 0.05 0.06 0.06 0.08 0.09 0.07 0.06 0.04 0.03 0.03 0.03 0.03 0.02 0.02 0.02 0.02 0.02 0.02 0.02 0.02 0.02 0.01 0.02 0.02 0.02 0.02 0.02 0.03 0.03 0.03 0.03 0.03 0.03 0.03 0.03 0.03 0.03
0.04 0.06 0.06 0.06 0.07 0.07 0.07 0.05 0.04 0.03 0.03 0.03 0.03 0.03 0.03 0.03 0.03 0.02 0.02 0.01 0.01 0.01 0.01 0.01 0.01 0.01 0.01 0.02 0.03 0.03 0.02 0.02 0.02 0.02 0.02 0.01 0.01 0.02
0.04 0.04 0.04 0.04 0.05 0.05 0.05 0.04 0.03 0.03 0.03 0.03 0.03 0.03 0.03 0.03 0.03 0.02 0.02 0.03 0.03 0.02 0.02 0.01 0.01 0.01 0.01 0.01 0.02 0.01 0.01 0.01 0.01 0.01 0.01 0.01 0.01 0.02
0.05 0.04 0.05 0.05 0.06 0.06 0.05 0.04 0.04 0.04 0.04 0.03 0.03 0.03 0.03 0.02 0.02 0.01 0.01 0.01 0.01 0.01 0.01 0.01 0.01 0.01 0.01 0.01 0.01 0.01 0.01 0.01 0.00 0.00 0.00 0.01 0.01 0.01
0.06 0.04 0.04 0.05 0.08 0.08 0.06 0.05 0.03 0.02 0.02 0.01 0.01 0.01 0.01 0.01 0.01 0.01 0.01 0.02 0.02 0.02 0.02 0.02 0.02 0.02 0.02 0.01 0.01 0.01 0.00 0.01 0.00 0.00 0.00 0.01 0.01 0.01
0.03 0.02 0.03 0.04 0.04 0.04 0.03 0.02 0.02 0.02 0.02 0.02 0.02 0.01 0.01 0.01 0.02 0.02 0.02 0.02 0.02 0.02 0.02 0.02 0.02 0.02 0.02 0.01 0.01 0.01 0.01 0.01 0.00 0.00 0.00 0.01 0.01 0.01
0.02 0.02 0.02 0.03 0.02 0.02 0.02 0.01 0.01 0.01 0.01 0.01 0.01 0.01 0.01 0.01 0.01 0.02 0.03 0.03 0.02 0.02 0.02 0.02 0.03 0.03 0.03 0.02 0.02 0.01 0.01 0.01 0.01 0.01 0.01 0.01 0.01 0.01
0.03 0.03 0.02 0.02 0.02 0.02 0.02 0.02 0.02 0.01 0.01 0.01 0.01 0.01 0.01 0.01 0.01 0.02 0.02 0.03 0.03 0.03 0.03 0.03 0.04 0.04 0.03 0.02 0.02 0.02 0.02 0.02 0.01 0.01 0.01 0.01 0.01 0.00
0.02 0.02 0.02 0.02 0.02 0.01 0.01 0.01 0.01 0.01 0.01 0.01 0.01 0.01 0.02 0.02 0.02 0.01 0.02 0.02 0.02 0.02 0.02 0.03 0.04 0.04 0.03 0.02 0.01 0.01 0.02 0.02 0.02 0.01 0.01 0.01 0.01 0.01
0.02 0.01 0.01 0.01 0.01 0.01 0.01 0.01 0.01 0.01 0.01 0.01 0.01 0.01 0.02 0.02 0.02 0.02 0.03 0.03 0.04 0.04 0.04 0.04 0.04 0.04 0.04 0.03 0.02 0.01 0.01 0.01 0.01 0.01 0.01 0.01 0.01 0.01
0.01 0.01 0.01 0.01 0.01 0.01 0.00 0.00 0.00 0.01 0.01 0.02 0.03 0.03 0.03 0.03 0.03 0.03 0.03 0.04 0.04 0.04 0.04 0.03 0.03 0.03 0.03 0.03 0.02 0.02 0.02 0.01 0.01 0.01 0.01 0.01 0.01 0.01
0.01 0.01 0.01 0.01 0.01 0.01 0.02 0.02 0.02 0.03 0.04 0.04 0.03 0.03 0.03 0.03 0.03 0.03 0.03 0.04 0.04 0.04 0.04 0.04 0.05 0.04 0.03 0.03 0.02 0.02 0.02 0.01 0.01 0.01 0.01 0.01 0.01 0.01
0.00 0.00 0.01 0.01 0.01 0.02 0.02 0.02 0.02 0.01 0.01 0.01 0.01 0.01 0.01 0.01 0.02 0.02 0.03 0.03 0.03 0.03 0.03 0.03 0.03 0.03 0.02 0.03 0.03 0.02 0.01 0.01 0.01 0.01 0.01 0.01 0.01 0.01
0.01 0.01 0.01 0.01 0.01 0.01 0.01 0.01 0.01 0.01 0.01 0.02 0.02 0.02 0.02 0.03 0.03 0.03 0.03 0.04 0.03 0.03 0.03 0.03 0.02 0.02 0.02 0.02 0.02 0.02 0.01 0.01 0.01 0.02 0.01 0.01 0.01 0.01
0.02 0.01 0.01 0.01 0.01 0.01 0.01 0.01 0.01 0.01 0.02 0.02 0.02 0.02 0.03 0.03 0.03 0.03 0.03 0.03 0.04 0.04 0.03 0.03 0.03 0.03 0.02 0.02 0.02 0.01 0.01 0.00 0.01 0.01 0.01 0.01 0.01 0.01
0.02 0.02 0.02 0.02 0.01 0.01 0.01 0.01 0.01 0.01 0.02 0.02 0.02 0.03 0.03 0.03 0.03 0.03 0.02 0.02 0.02 0.03 0.03 0.03 0.03 0.03 0.02 0.02 0.02 0.01 0.01 0.00 0.00 0.01 0.01 0.01 0.01 0.01
MSLP
1016.11 1016.35 1016.64 1016.95 1017.26 1017.52 1017.71 1017.81 1017.81 1017.71 1017.53 1017.31 1017.06 1016.81 1016.58 1016.39 1016.25 1016.18 1016.18 1016.25 1016.39 1016.59 1016.83 1017.08 1017.30 1017.47 1017.54 1017.50 1017.32 1017.01 1016.59 1016.09 1015.54 1015.00 1014.49 1014.05 1013.69 1013.42
1015.86 1016.09 1016.37 1016.68 1016.99 1017.26 1017.47 1017.59 1017.61 1017.55 1017.41 1017.22 1017.01 1016.80 1016.61 1016.45 1016.36 1016.32 1016.35 1016.45 1016.61 1016.83 1017.08 1017.33 1017.55 1017.71 1017.76 1017.69 1017.48 1017.13 1016.67 1016.11 1015.51 1014.90 1014.32 1013.81 1013.37 1013.02
1015.72 1015.94 1016.20 1016.50 1016.81 1017.08 1017.30 1017.44 1017.49 1017.47 1017.37 1017.23 1017.07 1016.90 1016.76 1016.65 1016.59 1016.58 1016.63 1016.74 1016.90 1017.11 1017.35 1017.58 1017.79 1017.92 1017.96 1017.88 1017.65 1017.29 1016.80 1016.23 1015.59 1014.94 1014.32 1013.74 1013.24 1012.81
1015.71 1015.90 1016.14 1016.43 1016.73 1017.01 1017.24 1017.39 1017.48 1017.49 1017.44 1017.35 1017.24 1017.12 1017.02 1016.95 1016.92 1016.93 1016.98 1017.08 1017.22 1017.40 1017.60 1017.81 1017.98 1018.10 1018.13 1018.04 1017.82 1017.47 1017.00 1016.43 1015.80 1015.14 1014.49 1013.88 1013.32 1012.83
1015.79 1015.95 1016.18 1016.46 1016.75 1017.03 1017.26 1017.44 1017.55 1017.60 1017.59 1017.55 1017.49 1017.42 1017.36 1017.32 1017.31 1017.31 1017.35 1017.43 1017.53 1017.67 1017.83 1017.99 1018.13 1018.23 1018.26 1018.18 1017.99 1017.68 1017.25 1016.72 1016.12 1015.48 1014.83 1014.21 1013.62 1013.09
1015.92 1016.07 1016.28 1016.54 1016.83 1017.10 1017.35 1017.54 1017.67 1017.75 1017.78 1017.78 1017.76 1017.74 1017.71 1017.70 1017.69 1017.69 1017.71 1017.74 1017.80 1017.88 1017.99 1018.10 1018.21 1018.30 1018.34 1018.29 1018.15 1017.90 1017.54 1017.08 1016.53 1015.94 1015.32 1014.71 1014.13 1013.58
1016.06 1016.19 1016.39 1016.65 1016.92 1017.20 1017.44 1017.65 1017.80 1017.90 1017.96 1018.00 1018.01 1018.02 1018.02 1018.02 1018.01 1018.00 1017.99 1017.99 1018.00 1018.03 1018.08 1018.15 1018.24 1018.32 1018.37 1018.36 1018.28 1018.10 1017.83 1017.45 1016.99 1016.47 1015.91 1015.34 1014.78 1014.25
1016.17 1016.30 1016.49 1016.74 1017.01 1017.28 1017.53 1017.73 1017.89 1018.00 1018.08 1018.14 1018.18 1018.21 1018.23 1018.24 1018.24 1018.22 1018.19 1018.15 1018.12 1018.10 1018.11 1018.14 1018.20 1018.28 1018.35 1018.39 1018.37 1018.27 1018.08 1017.80 1017.44 1017.00 1016.52 1016.01 1015.51 1015.03
1016.22 1016.36 1016.56 1016.81 1017.08 1017.34 1017.57 1017.77 1017.93 1018.04 1018.13 1018.20 1018.25 1018.30 1018.34 1018.36 1018.37 1018.34 1018.30 1018.24 1018.17 1018.12 1018.09 1018.10 1018.14 1018.21 1018.29 1018.36 1018.40 1018.37 1018.27 1018.09 1017.82 1017.48 1017.09 1016.67 1016.24 1015.83
1016.23 1016.39 1016.61 1016.86 1017.12 1017.38 1017.60 1017.78 1017.92 1018.02 1018.11 1018.18 1018.24 1018.30 1018.36 1018.40 1018.41 1018.40 1018.35 1018.28 1018.20 1018.12 1018.06 1018.04 1018.06 1018.12 1018.21 1018.30 1018.38 1018.41 1018.38 1018.28 1018.10 1017.85 1017.56 1017.23 1016.89 1016.57
1016.24 1016.43 1016.66 1016.92 1017.18 1017.41 1017.61 1017.77 1017.89 1017.98 1018.05 1018.12 1018.18 1018.26 1018.33 1018.39 1018.42 1018.42 1018.38 1018.31 1018.22 1018.12 1018.05 1018.00 1018.00 1018.04 1018.12 1018.22 1018.31 1018.38 1018.40 1018.37 1018.27 1018.11 1017.90 1017.67 1017.42 1017.19
1016.27 1016.49 1016.74 1017.00 1017.25 1017.47 1017.64 1017.77 1017.87 1017.93 1017.99 1018.05 1018.13 1018.21 1018.29 1018.37 1018.42 1018.44 1018.42 1018.36 1018.26 1018.16 1018.07 1018.00 1017.97 1017.99 1018.05 1018.13 1018.23 1018.31 1018.36 1018.37 1018.33 1018.24 1018.11 1017.96 1017.81 1017.66
1016.36 1016.60 1016.86 1017.12 1017.35 1017.55 1017.69 1017.80 1017.87 1017.92 1017.96 1018.02 1018.09 1018.19 1018.29 1018.38 1018.45 1018.49 1018.48 1018.43 1018.34 1018.23 1018.12 1018.03 1017.98 1017.96 1017.99 1018.05 1018.13 1018.21 1018.27 1018.30 1018.29 1018.26 1018.19 1018.11 1018.03 1017.97
1016.50 1016.75 1017.01 1017.25 1017.46 1017.63 1017.76 1017.84 1017.89 1017.92 1017.96 1018.02 1018.10 1018.20 1018.32 1018.42 1018.51 1018.56 1018.56 1018.51 1018.43 1018.31 1018.19 1018.08 1017.99 1017.95 1017.94 1017.97 1018.02 1018.08 1018.13 1018.17 1018.19 1018.18 1018.16 1018.13 1018.11 1018.10
1016.68 1016.91 1017.14 1017.36 1017.55 1017.70 1017.80 1017.87 1017.91 1017.95 1017.99 1018.05 1018.14 1018.25 1018.37 1018.48 1018.57 1018.62 1018.62 1018.58 1018.48 1018.36 1018.23 1018.10 1017.99 1017.92 1017.88 1017.88 1017.90 1017.93 1017.97 1018.00 1018.02 1018.02 1018.02 1018.03 1018.04 1018.06
1016.83 1017.03 1017.23 1017.42 1017.58 1017.71 1017.81 1017.87 1017.92 1017.97 1018.02 1018.09 1018.19 1018.30 1018.42 1018.52 1018.60 1018.64 1018.63 1018.57 1018.47 1018.34 1018.19 1018.05 1017.93 1017.84 1017.78 1017.74 1017.74 1017.74 1017.76 1017.77 1017.77 1017.78 1017.78 1017.79 1017.81 1017.85
1016.92 1017.08 1017.24 1017.40 1017.54 1017.65 1017.75 1017.82 1017.89 1017.96 1018.03 1018.12 1018.22 1018.33 1018.43 1018.52 1018.57 1018.58 1018.55 1018.47 1018.35 1018.20 1018.05 1017.90 1017.77 1017.66 1017.59 1017.54 1017.51 1017.50 1017.48 1017.47 1017.45 1017.43 1017.42 1017.42 1017.43 1017.47
1016.92 1017.03 1017.15 1017.28 1017.41 1017.52 1017.63 1017.73 1017.83 1017.92 1018.02 1018.12 1018.22 1018.32 1018.40 1018.45 1018.46 1018.43 1018.35 1018.24 1018.09 1017.93 1017.77 1017.62 1017.49 1017.39 1017.31 1017.25 1017.21 1017.17 1017.13 1017.08 1017.03 1016.98 1016.94 1016.91 1016.90 1016.92
1016.83 1016.90 1016.99 1017.10 1017.23 1017.36 1017.49 1017.62 1017.74 1017.87 1017.99 1018.10 1018.19 1018.26 1018.30 1018.30 1018.26 1018.17 1018.05 1017.90 1017.72 1017.55 1017.38 1017.23 1017.11 1017.02 1016.94 1016.88 1016.82 1016.77 1016.70 1016.62 1016.54 1016.45 1016.37 1016.30 1016.26 1016.25
1016.69 1016.73 1016.81 1016.92 1017.05 1017.20 1017.36 1017.52 1017.68 1017.83 1017.96 1018.07 1018.14 1018.18 1018.16 1018.10 1018.00 1017.85 1017.67 1017.47 1017.27 1017.08 1016.91 1016.77 1016.66 1016.58 1016.51 1016.46 1016.40 1016.32 1016.23 1016.12 1016.00 1015.87 1015.74 1015.64 1015.56 1015.51
1016.55 1016.59 1016.67 1016.79 1016.94 1017.11 1017.29 1017.48 1017.66 1017.82 1017.95 1018.04 1018.08 1018.07 1018.00 1017.87 1017.70 1017.49 1017.26 1017.02 1016.80 1016.60 1016.43 1016.30 1016.21 1016.14 1016.09 1016.03 1015.97 1015.89 1015.77 1015.64 1015.48 1015.31 1015.14 1015.00 1014.88 1014.80
1016.47 1016.53 1016.63 1016.76 1016.93 1017.13 1017.33 1017.53 1017.71 1017.87 1017.98 1018.04 1018.03 1017.96 1017.82 1017.63 1017.40 1017.13 1016.86 1016.59 1016.35 1016.15 1015.99 1015.88 1015.81 1015.76 1015.72 1015.68 1015.62 1015.52 1015.40 1015.23 1015.05 1014.85 1014.65 1014.47 1014.32 1014.21
1016.49 1016.58 1016.71 1016.87 1017.06 1017.27 1017.48 1017.67 1017.84 1017.97 1018.05 1018.06 1018.00 1017.87 1017.67 1017.42 1017.13 1016.83 1016.53 1016.25 1016.00 1015.81 1015.67 1015.58 1015.53 1015.50 1015.48 1015.45 1015.39 1015.30 1015.16 1014.99 1014.79 1014.57 1014.35 1014.15 1013.98 1013.85
Thickness
5743 5741 5739 5739 5737 5735 5732 5728 5720 5713 5712 5714 5715 5717 5716 5714 5713 5711 5709 5707 5706 5705 5703 5702 5700 5698 5696 5695 5693 5691 5688 5686 5683 5681 5678 5676 5673 5670
5741 5739 5737 5736 5735 5733 5730 5727 5723 5717 5711 5712 5712 5712 5712 5710 5708 5706 5704 5702 5700 5699 5698 5697 5694 5692 5691 5689 5686 5684 5682 5680 5677 5675 5672 5669 5667 5664
5738 5736 5735 5734 5732 5730 5728 5725 5721 5717 5711 5709 5709 5708 5707 5704 5701 5699 5697 5696 5694 5693 5691 5690 5688 5686 5684 5682 5679 5677 5675 5672 5670 5667 5665 5662 5659 5656
5734 5733 5732 5731 5729 5727 5724 5722 5718 5716 5711 5705 5703 5702 5700 5698 5695 5693 5691 5689 5687 5685 5683 5682 5680 5678 5677 5675 5672 5670 5667 5664 5662 5659 5656 5654 5651 5648
5732 5730 5728 5726 5724 5722 5720 5718 5715 5712 5709 5704 5699 5697 5694 5691 5688 5686 5683 5681 5679 5677 5675 5674 5672 5670 5668 5666 5664 5661 5658 5656 5653 5650 5648 5645 5642 5638
5729 5727 5725 5723 5721 5719 5717 5714 5710 5706 5703 5699 5694 5691 5688 5685 5682 5678 5675 5673 5671 5670 5667 5665 5663 5661 5659 5657 5655 5652 5649 5647 5644 5641 5638 5635 5632 5629
5726 5724 5722 5721 5719 5716 5713 5709 5706 5701 5697 5693 5689 5685 5682 5679 5676 5673 5669 5665 5663 5661 5659 5656 5654 5651 5649 5647 5645 5642 5640 5637 5634 5631 5628 5625 5622 5619
5720 5718 5717 5715 5714 5711 5709 5706 5703 5698 5693 5689 5685 5681 5678 5676 5672 5669 5664 5659 5655 5653 5650 5646 5644 5641 5639 5637 5635 5632 5630 5627 5624 5621 5618 5615 5612 5609
5715 5712 5710 5708 5706 5704 5701 5699 5697 5694 5692 5687 5682 5679 5675 5672 5668 5663 5658 5654 5651 5647 5643 5637 5635 5632 5630 5628 5625 5623 5620 5617 5614 5610 5607 5604 5601 5598
5711 5708 5705 5701 5699 5697 5694 5691 5688 5686 5684 5682 5679 5676 5672 5668 5664 5659 5654 5648 5643 5639 5636 5630 5626 5623 5621 5619 5616 5613 5610 5607 5604 5600 5597 5594 5591 5588
5704 5702 5699 5695 5693 5691 5687 5683 5681 5678 5677 5674 5672 5669 5666 5662 5657 5651 5645 5639 5634 5630 5628 5623 5618 5614 5612 5610 5607 5604 5601 5598 5594 5591 5588 5585 5582 5579
5695 5693 5691 5688 5686 5684 5680 5676 5673 5670 5668 5666 5663 5660 5657 5653 5649 5645 5640 5634 5628 5623 5621 5616 5611 5607 5603 5601 5599 5596 5592 5589 5586 5583 5579 5576 5573 5569
5689 5685 5683 5681 5679 5676 5673 5669 5667 5663 5659 5656 5653 5650 5646 5643 5640 5636 5633 5628 5623 5619 5616 5611 5605 5600 5596 5592 5590 5588 5584 5581 5577 5574 5571 5568 5564 5561
5682 5679 5676 5673 5671 5668 5665 5662 5659 5655 5651 5647 5643 5640 5636 5634 5631 5628 5625 5621 5619 5615 5611 5606 5600 5595 5589 5585 5582 5580 5577 5574 5570 5566 5563 5560 5556 5553
5676 5673 5669 5666 5663 5659 5657 5654 5650 5646 5641 5637 5634 5631 5629 5626 5623 5619 5616 5612 5609 5606 5603 5599 5595 5590 5585 5580 5576 5573 5569 5566 5563 5559 5556 5552 5549 5546
5667 5664 5660 5657 5653 5650 5647 5644 5641 5637 5634 5630 5627 5623 5620 5617 5613 5610 5606 5602 5598 5596 5594 5591 5587 5583 5578 5574 5570 5567 5563 5560 5557 5553 5549 5546 5542 5539
5657 5652 5648 5645 5641 5638 5636 5633 5631 5628 5624 5621 5618 5614 5611 5608 5605 5602 5597 5593 5589 5586 5584 5582 5579 5575 5572 5568 5563 5560 5557 5553 5551 5547 5542 5539 5537 5534
5648 5643 5639 5636 5632 5629 5626 5623 5621 5618 5615 5612 5608 5605 5602 5599 5595 5592 5588 5584 5581 5578 5575 5572 5568 5564 5561 5559 5558 5554 5550 5547 5545 5541 5537 5532 5531 5529
5639 5634 5630 5627 5623 5620 5617 5614 5611 5609 5606 5603 5599 5596 5592 5589 5586 5583 5580 5576 5573 5570 5567 5564 5559 5555 5552 5550 5550 5548 5543 5540 5537 5533 5530 5527 5525 5525
5628 5625 5621 5617 5614 5611 5608 5604 5601 5598 5595 5592 5589 5586 5583 5580 5576 5573 5570 5567 5564 5561 5558 5555 5552 5549 5546 5544 5542 5540 5538 5534 5530 5527 5524 5521 5520 5519
5618 5614 5611 5608 5604 5601 5598 5595 5591 5588 5585 5581 5578 5576 5573 5570 5567 5564 5561 5558 5555 5552 5550 5548 5547 5544 5540 5535 5532 5531 5531 5528 5525 5521 5518 5513 5510 5509
5607 5604 5600 5597 5594 5590 5587 5584 5580 5577 5574 5571 5568 5565 5563 5560 5558 5555 5553 5549 5547 5544 5542 5540 5538 5534 5530 5526 5525 5523 5521 5520 5518 5516 5513 5510 5506 5503
5596 5592 5588 5585 5582 5579 5576 5572 5569 5566 5563 5560 5557 5555 5552 5550 5548 5545 5543 5540 5538 5535 5532 5530 5527 5524 5522 5519 5517 5514 5513 5511 5509 5506 5506 5505 5503 5502